(183911) = 2004 CB100

Discovered at Catalina on 2004-02-15 by CSS.

Orbit

Orbit type: Main Belt

Note: WebGL enabled browser required.

epoch2023-09-13.0
epoch JD2460200.5
perihelion date2020-04-10.98989
perihelion JD2458950.48989
argument of perihelion (°)220.75362
ascending node (°)83.30231
inclination (°)4.38063
eccentricity0.1321232
perihelion distance (AU)2.0750534
Tisserand w.r.t. Jupiter3.5
ΔV w.r.t. Earth (km/sec)9.1
semimajor axis (AU)2.3909537
mean anomaly (°)333.24267
mean daily motion (°/day)0.26659200
aphelion distance (AU)2.707
period (years)3.7
P-vector [x]0.55810790
P-vector [y]-0.74008758
P-vector [z]-0.37521454
Q-vector [x]0.82629337
Q-vector [y]0.53704439
Q-vector [z]0.16977215
absolute magnitude16.34
phase slope0.15
uncertainty0
referenceMPEC 2024-A34
observations used829
oppositions15
arc length (days)7063
first opposition used2004
last opposition used2023
residual rms (arc-secs)0.77
perturbers coarse indicatorM-v
perturbers precise indicator003Ek
first observation date used2004-02-15.0
last observation date used2023-06-18.0
computer nameMPCLINUX
JD of orbit computation2456670.825131
perihelion JD uncertainty (days)9.2496E-05
argument of perihelion uncertainty (°)7.4426E-05
ascending node uncertainty (°)7.0776E-05
inclination uncertainty (°)5.0608E-06
eccentricity uncertainty 3.9226E-08
perihelion distance uncertainty (AU)9.0186E-08
Minimum Orbit Intersection Distances (in AU)
for orbit epoch: 2460200.5, reference: E2024-A34
Mercury1.63243
Venus1.3469
Earth1.06147
Mars0.65915
Jupiter2.48725
Saturn6.38622
Uranus15.8076
Neptune27.3827

Observations

845 total observations over interval: 2004 02 15.39009 – 2023 06 18.339493
These data are available for download (format description).

Date (UT) J2000 RA J2000 Dec Magn Location Ref
2004 02 15.39009 11 33 23.73 +10 06 28.1 19.5 V 703 – Catalina Sky Survey MPS 100216
2004 02 15.39689 11 33 23.52 +10 06 29.1 19.6 V 703 – Catalina Sky Survey MPS 100216
2004 02 15.40370 11 33 23.19 +10 06 31.8 19.6 V 703 – Catalina Sky Survey MPS 100216
2004 02 15.41049 11 33 22.91 +10 06 36.0 20.3 V 703 – Catalina Sky Survey MPS 100216
2004 02 17.34232 11 32 01.62 +10 18 48.6 20.3   704 – Lincoln Laboratory ETS, New Mexico MPS 100216
2004 02 17.35478 11 32 01.07 +10 18 53.7 20.2   704 – Lincoln Laboratory ETS, New Mexico MPS 100216
2004 02 17.36666 11 32 00.69 +10 18 58.6 19.9   704 – Lincoln Laboratory ETS, New Mexico MPS 100216
2004 03 10.34690 11 12 38.09 +12 42 15.0 19.2   644 – Palomar Mountain/NEAT MPS 103870
2004 03 10.37044 11 12 36.71 +12 42 23.3 19.3   644 – Palomar Mountain/NEAT MPS 103870
2004 03 10.39926 11 12 34.98 +12 42 33.5 19.2   644 – Palomar Mountain/NEAT MPS 103870
2004 03 20.28234 11 03 22.11 +13 35 32.2 19.9   704 – Lincoln Laboratory ETS, New Mexico MPS 103870
2004 03 20.29325 11 03 21.48 +13 35 35.1 20.1   704 – Lincoln Laboratory ETS, New Mexico MPS 103870
2004 03 20.31538 11 03 20.21 +13 35 40.5 19.9   704 – Lincoln Laboratory ETS, New Mexico MPS 103870
2004 03 20.32863 11 03 19.49 +13 35 44.6 20.2   704 – Lincoln Laboratory ETS, New Mexico MPS 103870
2004 03 25.23261 10 59 08.45 +13 56 23.9 20.1   704 – Lincoln Laboratory ETS, New Mexico MPS 103870
2004 03 25.24337 10 59 07.92 +13 56 26.7 19.9   704 – Lincoln Laboratory ETS, New Mexico MPS 103870
2004 03 25.25428 10 59 07.39 +13 56 29.5 19.8   704 – Lincoln Laboratory ETS, New Mexico MPS 103870
2004 03 25.26475 10 59 06.86 +13 56 31.2 19.4   704 – Lincoln Laboratory ETS, New Mexico MPS 103870
2005 07 04.42697 22 01 30.26 -17 32 06.4 19.1   644 – Palomar Mountain/NEAT MPS 137967
2005 07 04.43783 22 01 30.27 -17 32 09.0 19.0   644 – Palomar Mountain/NEAT MPS 137967
2005 07 04.44934 22 01 30.26 -17 32 11.8 19.0   644 – Palomar Mountain/NEAT MPS 137967
2005 07 11.37248 22 01 00.22 -18 03 12.1 18.7 R 699 – Lowell Observatory-LONEOS MPS 137967
2005 07 11.37523 22 01 00.28 -18 03 12.8 18.5 R 699 – Lowell Observatory-LONEOS MPS 137967
2005 07 11.39167 22 01 00.06 -18 03 16.7   699 – Lowell Observatory-LONEOS MPS 137967
2005 07 11.39442 22 01 00.04 -18 03 17.4   699 – Lowell Observatory-LONEOS MPS 137967
2005 07 11.41086 22 00 59.73 -18 03 21.7   699 – Lowell Observatory-LONEOS MPS 137967
2005 07 11.41361 22 00 59.83 -18 03 23.6   699 – Lowell Observatory-LONEOS MPS 137967
2005 07 11.43006 22 00 59.52 -18 03 27.4   699 – Lowell Observatory-LONEOS MPS 137967
2005 07 11.43281 22 00 59.42 -18 03 29.6   699 – Lowell Observatory-LONEOS MPS 137967
2005 08 15.59228 21 38 11.54 -21 44 00.2 18.2 V E12 – Siding Spring Survey MPS 139653
2005 08 15.60083 21 38 11.00 -21 44 02.9 18.3 V E12 – Siding Spring Survey MPS 139653
2005 08 15.61012 21 38 10.46 -21 44 05.8 18.2 V E12 – Siding Spring Survey MPS 139653
2005 08 15.61861 21 38 10.03 -21 44 08.4 18.4 V E12 – Siding Spring Survey MPS 139653
2005 08 22.64611 21 31 57.32 -22 20 00.1 18.1 V E12 – Siding Spring Survey MPS 139653
2005 08 22.65485 21 31 56.67 -22 20 03.1 18.8 V E12 – Siding Spring Survey MPS 139653
2005 08 22.66329 21 31 56.13 -22 20 04.6 18.3 V E12 – Siding Spring Survey MPS 139653
2005 08 22.67153 21 31 55.77 -22 20 07.0 19.0 V E12 – Siding Spring Survey MPS 139653
2005 08 27.66987 21 27 50.36 -22 40 10.1 18.6 V E12 – Siding Spring Survey MPS 140202
2005 08 27.67780 21 27 50.00 -22 40 11.7 18.7 V E12 – Siding Spring Survey MPS 140202
2005 08 27.68558 21 27 49.71 -22 40 12.3 18.6 V E12 – Siding Spring Survey MPS 140202
2005 08 27.69333 21 27 49.28 -22 40 14.7 19.4 V E12 – Siding Spring Survey MPS 140202
2005 08 31.14593 21 25 16.35 -22 51 15.2 18.1 R 699 – Lowell Observatory-LONEOS MPS 140202
2005 08 31.16513 21 25 15.59 -22 51 19.4   699 – Lowell Observatory-LONEOS MPS 140202
2005 08 31.18432 21 25 14.62 -22 51 21.4   699 – Lowell Observatory-LONEOS MPS 140202
2005 08 31.20350 21 25 13.79 -22 51 24.6   699 – Lowell Observatory-LONEOS MPS 140202
2005 09 01.23994 21 24 30.76 -22 54 09.9 18.3   644 – Palomar Mountain/NEAT MPS 141081
2005 09 01.26573 21 24 29.63 -22 54 14.0 18.3   644 – Palomar Mountain/NEAT MPS 141081
2005 09 01.29139 21 24 28.52 -22 54 17.8 18.5   644 – Palomar Mountain/NEAT MPS 141081
2005 09 08.55287 21 20 15.32 -23 06 53.8 18.8 V E12 – Siding Spring Survey MPS 141081
2005 09 08.56182 21 20 15.10 -23 06 53.8 18.4 V E12 – Siding Spring Survey MPS 141081
2005 09 08.57046 21 20 14.78 -23 06 54.5 18.4 V E12 – Siding Spring Survey MPS 141081
2005 09 08.57942 21 20 14.53 -23 06 55.2 19.2 V E12 – Siding Spring Survey MPS 141081
2005 10 04.10327 21 18 39.21 -22 27 46.8 19.4 R 644 – Palomar Mountain/NEAT MPS 143937
2005 10 04.12420 21 18 39.61 -22 27 42.5 19.3 R 644 – Palomar Mountain/NEAT MPS 143937
2005 10 04.14978 21 18 40.08 -22 27 36.5 19.4 R 644 – Palomar Mountain/NEAT MPS 143937
2006 11 14.46568 07 09 35.64 +22 59 05.7 21.4 V G96 – Mt. Lemmon Survey MPS 186974
2006 11 14.47288 07 09 35.60 +22 59 05.8 21.6 V G96 – Mt. Lemmon Survey MPS 186974
2006 11 14.48017 07 09 35.53 +22 59 07.0 21.0 V G96 – Mt. Lemmon Survey MPS 186974
2006 11 14.48737 07 09 35.42 +22 59 07.5 21.2 V G96 – Mt. Lemmon Survey MPS 186974
2006 12 21.24029 06 45 04.05 +24 33 54.2 20.4 V 691 – Steward Observatory, Kitt Peak-Spacewatch MPS 192161
2006 12 21.25765 06 45 02.89 +24 33 57.1 20.4 V 691 – Steward Observatory, Kitt Peak-Spacewatch MPS 192161
2006 12 21.27501 06 45 01.73 +24 34 00.1 20.5 V 691 – Steward Observatory, Kitt Peak-Spacewatch MPS 192161
2006 12 25.23526 06 40 38.78 +24 44 48.1 21.3 V 691 – Steward Observatory, Kitt Peak-Spacewatch MPS 192161
2006 12 25.25258 06 40 37.57 +24 44 49.8 20.0 V 691 – Steward Observatory, Kitt Peak-Spacewatch MPS 192161
2006 12 25.26992 06 40 36.38 +24 44 52.3 20.2 V 691 – Steward Observatory, Kitt Peak-Spacewatch MPS 192161
2008 03 06.44944 13 47 58.72 -04 22 54.3 20.1 V 691 – Steward Observatory, Kitt Peak-Spacewatch MPS 240704
2008 03 06.46710 13 47 58.39 -04 22 50.8 20.0 V 691 – Steward Observatory, Kitt Peak-Spacewatch MPS 240704
2008 03 06.48477 13 47 58.03 -04 22 47.6 20.0 V 691 – Steward Observatory, Kitt Peak-Spacewatch MPS 240704
2008 03 10.42840 13 46 39.64 -04 08 57.9 20.0 V G96 – Mt. Lemmon Survey MPS 242077
2008 03 10.43911 13 46 39.39 -04 08 55.3 19.9 V G96 – Mt. Lemmon Survey MPS 242077
2008 03 10.44142 13 46 39.32 -04 08 54.8 19.9 V 691 – Steward Observatory, Kitt Peak-Spacewatch MPS 242077
2008 03 10.44985 13 46 39.14 -04 08 53.1 19.9 V G96 – Mt. Lemmon Survey MPS 242077
2008 03 10.45911 13 46 38.89 -04 08 51.0 20.0 V 691 – Steward Observatory, Kitt Peak-Spacewatch MPS 242077
2008 03 10.46060 13 46 38.85 -04 08 50.7 20.0 V G96 – Mt. Lemmon Survey MPS 242077
2008 03 10.47681 13 46 38.45 -04 08 47.0 19.9 V 691 – Steward Observatory, Kitt Peak-Spacewatch MPS 242077
2008 03 28.23451 13 35 43.58 -02 47 00.3 19.5 V 691 – Steward Observatory, Kitt Peak-Spacewatch MPS 244007
2008 03 28.25211 13 35 42.72 -02 46 55.0 19.6 V 691 – Steward Observatory, Kitt Peak-Spacewatch MPS 244007
2008 03 28.26972 13 35 41.83 -02 46 49.5 19.6 V 691 – Steward Observatory, Kitt Peak-Spacewatch MPS 244007
2008 03 30.35611 13 33 57.54 -02 35 52.8 19.4 C 704 – Lincoln Laboratory ETS, New Mexico MPS 287902
2008 03 30.36796 13 33 56.91 -02 35 50.6 19.3 C 704 – Lincoln Laboratory ETS, New Mexico MPS 287902
2008 03 30.39168 13 33 55.71 -02 35 43.3 19.2 C 704 – Lincoln Laboratory ETS, New Mexico MPS 287902
2008 03 30.40353 13 33 55.05 -02 35 39.1 19.5 C 704 – Lincoln Laboratory ETS, New Mexico MPS 287902
2008 03 31.22580 13 33 13.12 -02 31 18.5 19.5 V 691 – Steward Observatory, Kitt Peak-Spacewatch MPS 244666
2008 03 31.24339 13 33 12.18 -02 31 12.9 19.6 V 691 – Steward Observatory, Kitt Peak-Spacewatch MPS 244666
2008 03 31.26096 13 33 11.24 -02 31 07.2 19.5 V 691 – Steward Observatory, Kitt Peak-Spacewatch MPS 244666
2008 04 03.23337 13 30 33.51 -02 15 23.5 19.5 V 691 – Steward Observatory, Kitt Peak-Spacewatch MPS 244666
2008 04 03.25094 13 30 32.56 -02 15 17.8 19.4 V 691 – Steward Observatory, Kitt Peak-Spacewatch MPS 244666
2008 04 03.26851 13 30 31.55 -02 15 12.3 19.5 V 691 – Steward Observatory, Kitt Peak-Spacewatch MPS 244666
